This is the latest recevied weather packets stored in our database for station/object CR7BQX-13. If no packets are shown the sender has not sent any weather packets the latest 10 day(s).
| Time | Temp. | Humidity | Pressure | Rain* | Wind** | Luminosity | Snow |
|---|---|---|---|---|---|---|---|
| 1777914361 | 26.11° C | 100% | 1015.2 hPa | - | - | - | - |
| 1777912555 | 23.89° C | 100% | 1015 hPa | - | - | - | - |
| 1777910749 | 28.89° C | 100% | 1014.8 hPa | - | - | - | - |
| 1777908943 | 30° C | 98% | 1014.8 hPa | - | - | - | - |
| 1777907137 | 28.89° C | 98% | 1014.9 hPa | - | - | - | - |
| 1777905332 | 26.11° C | 100% | 1014.9 hPa | - | - | - | - |
| 1777903526 | 28.33° C | 88% | 1014.9 hPa | - | - | - | - |
| 1777901721 | 27.22° C | 90% | 1015.1 hPa | - | - | - | - |
| 1777899915 | 26.67° C | 100% | 1015.1 hPa | - | - | - | - |
| 1777898109 | 22.78° C | 100% | 1015.2 hPa | - | - | - | - |
| 1777896304 | 26.67° C | 95% | 1015.4 hPa | - | - | - | - |
| 1777823153 | 27.78° C | 100% | 1011.6 hPa | - | - | - | - |
| 1777821347 | 26.11° C | 100% | 1011.6 hPa | - | - | - | - |
| 1777819541 | 24.44° C | 100% | 1011.8 hPa | - | - | - | - |
| 1777817736 | 25.56° C | 100% | 1011.8 hPa | - | - | - | - |
| 1777815930 | 32.22° C | 95% | 1011.6 hPa | - | - | - | - |
| 1777814124 | 27.22° C | 100% | 1012.3 hPa | - | - | - | - |
| 1777737677 | 23.89° C | 100% | 1013.1 hPa | - | - | - | - |
| 1777735871 | 23.33° C | 100% | 1013.5 hPa | - | - | - | - |
| 1777734065 | 26.11° C | 100% | 1013.6 hPa | - | - | - | - |
| 1777732260 | 31.67° C | 100% | 1014 hPa | - | - | - | - |
| 1777730453 | 34.44° C | 92% | 1014.5 hPa | - | - | - | - |
| 1777728648 | 29.44° C | 100% | 1014.9 hPa | - | - | - | - |
| 1777662090 | 19.44° C | 100% | 1016.7 hPa | - | - | - | - |
| 1777660284 | 20.56° C | 100% | 1016.4 hPa | - | - | - | - |
* Rain since midnight (hover to see other rain measurements)
** Current wind speed in m/s (hover to see current wind gust speed)